Погода в Албене

Болгария     43°21′58″N   28°04′25″E
темп.,
°C
ветер,
м/с
пор.,
м/с
влажн.,
%
обл.,
%
осадки,
мм/ч
давл.,
гПа
погр.,
м
1 марта, пн
пн123:00+4зсз237417 0.0 102963
02:00+4зсз44689 0.0 1028106
05:00+4сз486871 0.0 1027197
08:00+5сз476885 0.0 1027330
11:00+6ссз4572100 0.0 1028826
14:00+3с6995100 2.1 1028619
17:00+5с6977100 0.2 1029934
20:00+3с5108693 0.3 1031636
2 марта, вт
вт223:00+3с6108193 0.1 1032677
02:00+2с6118547 0.1 1033519
05:00+1с510877 0.0 1033432
08:00+2с57824 0.0 1034420
11:00+5с57610 0.0 1033931
14:00+7с565811 0.0 10331301
17:00+6ссз466498 0.0 10311183
20:00+4сз247970 0.0 1031194
3 марта, ср
ср323:00+3з368279 0.0 1030177
02:00+4зсз4117840 0.0 1030283
05:00+5сз814760 0.0 1029306
08:00+5ссз511760 0.0 1030531
11:00+8ссв58650 0.0 1031722
14:00+10всв46610 0.0 10301008
17:00+7вюв33740 0.0 1029352
20:00+4вюв12821 0.0 1030130
4 марта, чт
чт423:00+4ююз22820 0.0 1030101
02:00+3юз23861 0.0 102996
05:00+3юз238619 0.0 102779
08:00+4ююз238110 0.0 1026124
11:00+7ю45610 0.0 1024426
14:00+8ю56650 0.0 1021414
17:00+7ю45740 0.0 1019236
20:00+5ю46830 0.0 1019161
5 марта, пт
пт523:00+5ююз23880 0.0 101862
02:00+5зюз23830 0.0 101629
05:00+6зюз23771 0.0 101529
08:00+7зюз237144 0.0 101540
11:00+12юз356118 0.0 1015240
14:00+15юз344941 0.0 1014495
17:00+14юз356067 0.0 1013105
20:00+10з347552 0.0 101435